Albany, NY

4:59 AM EST on November 15, 2019 (GMT -0500)
Albany International

Weather History for KALB - September, 2019

Change the Weather History Date:

Sunday, September 1, 2019

  Actual Average Record
Temperature  
Mean Temperature 63 °F 67 °F  
Max Temperature 75 °F 77 °F 96 °F (1953)
Min Temperature 51 °F 57 °F 41 °F (1967)
Degree Days  
Heating Degree Days 2 1  
Month to date heating degree days 2 1  
Since 1 July heating degree days 4 24  
Cooling Degree Days 0 4  
Month to date cooling degree days 0 4  
Year to date cooling degree days 723 547  
Growing Degree Days 13 (Base 50)    
Moisture  
Dew Point 53 °F    
Average Humidity 69    
Maximum Humidity 89    
Minimum Humidity 49    
Precipitation  
Precipitation T in 0.09 in 2.47 in (1952)
Month to date precipitation T 0.09  
Year to date precipitation 28.98 26.24  
Sea Level Pressure  
Sea Level Pressure 30.32 in    
Wind  
Wind Speed 5 mph (SSE)    
Max Wind Speed 18 mph    
Max Gust Speed 27 mph    
Visibility 10 miles    
Events Fog , Rain    
T = Trace of Precipitation, MM = Missing Value Source: NWS Daily Summary

Daily Weather History Graph

Daily Weather History Graph

Search for Another Location

Airport or City:

Astronomy

Sep. 01, 2019 Rise Set
Actual Time 6:19 AM EDT 7:30 PM EDT
Civil Twilight 5:50 AM EDT 7:59 PM EDT
Nautical Twilight 5:15 AM EDT 8:33 PM EDT
Astronomical Twilight 4:38 AM EDT 9:10 PM EDT
Moon 8:49 AM EDT (9/1) 9:12 PM EDT (9/1)
Length of Visible Light 14h 08m
Length of Day
13h 10m
Waxing Crescent, 8% of the Moon is Illuminated
Sep 1
Waxing Crescent
Sep 5
First Quarter
Sep 14
Full
Sep 21
Last Quarter
Sep 28
New

Hourly Weather History & Observations

Time (EDT) Temp. Dew Point Humidity Pressure Visibility Wind Dir Wind Speed Gust Speed Precip Events Conditions
12:51 AM 57.0 °F 48.9 °F 74% 30.34 in 10.0 mi Calm Calm - N/A   Scattered Clouds
1:51 AM 55.0 °F 50.0 °F 83% 30.35 in 10.0 mi North 4.6 mph - N/A   Clear
2:51 AM 55.9 °F 51.1 °F 84% 30.34 in 10.0 mi NE 3.5 mph - N/A   Partly Cloudy
3:51 AM 55.0 °F 51.1 °F 86% 30.36 in 10.0 mi NNW 3.5 mph - N/A   Partly Cloudy
4:51 AM 54.0 °F 48.9 °F 83% 30.36 in 10.0 mi Calm Calm - N/A   Mostly Cloudy
5:51 AM 54.0 °F 50.0 °F 86% 30.37 in 10.0 mi Calm Calm - N/A   Mostly Cloudy
6:51 AM 53.1 °F 48.0 °F 83% 30.38 in 10.0 mi Calm Calm - N/A   Mostly Cloudy
7:51 AM 57.0 °F 52.0 °F 83% 30.39 in 10.0 mi Calm Calm - N/A Fog Mostly Cloudy
8:51 AM 61.0 °F 53.1 °F 75% 30.38 in 10.0 mi Calm Calm - N/A   Mostly Cloudy
9:51 AM 64.0 °F 52.0 °F 65% 30.38 in 10.0 mi Calm Calm - N/A   Mostly Cloudy
10:51 AM 68.0 °F 53.1 °F 59% 30.38 in 10.0 mi Calm Calm - N/A   Mostly Cloudy
11:51 AM 70.0 °F 52.0 °F 53% 30.36 in 10.0 mi South 6.9 mph - N/A   Mostly Cloudy
12:51 PM 70.0 °F 52.0 °F 53% 30.35 in 10.0 mi SSW 6.9 mph - N/A   Mostly Cloudy
1:51 PM 72.0 °F 53.1 °F 51% 30.33 in 10.0 mi Calm Calm - N/A   Mostly Cloudy
2:51 PM 73.9 °F 53.1 °F 48% 30.31 in 10.0 mi South 8.1 mph - N/A   Mostly Cloudy
3:51 PM 73.0 °F 54.0 °F 51% 30.29 in 10.0 mi South 5.8 mph - N/A   Mostly Cloudy
4:51 PM 73.0 °F 54.0 °F 51% 30.27 in 10.0 mi South 11.5 mph - N/A   Mostly Cloudy
5:51 PM 73.0 °F 54.0 °F 51% 30.26 in 10.0 mi SE 6.9 mph - N/A   Mostly Cloudy
6:51 PM 71.1 °F 55.0 °F 57% 30.24 in 10.0 mi SSE 5.8 mph - N/A   Mostly Cloudy
7:51 PM 70.0 °F 55.0 °F 59% 30.23 in 10.0 mi SSE 4.6 mph - N/A   Mostly Cloudy
8:51 PM 70.0 °F 55.0 °F 59% 30.22 in 10.0 mi SSE 9.2 mph - 0.00 in   Overcast
9:51 PM 70.0 °F 55.9 °F 61% 30.21 in 10.0 mi SSE 10.4 mph 21.9 mph N/A   Overcast
10:51 PM 69.1 °F 57.0 °F 65% 30.20 in 10.0 mi South 16.1 mph 26.5 mph N/A   Overcast
11:51 PM 69.1 °F 55.9 °F 63% 30.19 in 10.0 mi South 10.4 mph 21.9 mph 0.00 in Rain Light Rain